Погода Большие Уки

Погода Большие Уки : погода сейчас, прогноз погоды и архив. Всё, что Вы хотите узнать о погоде Большие Уки!

Хотите узнать прогноз погоды Большие Уки? Тогда Вам сюда: Погода Большие Уки

Поиск расширенной информации на нашем сайте:

Другие новости

Новости СМИ2

Главная страница сайта

Новости сайта

03.07.2017

Напоминаем, что на нашем специализированном сайте Метеоцентр.Азия вы можете получить высокодетализированные автоматические прогнозы погоды по пунктам России, СНГ и мира в авиационном формате (включающие направление и скорость ветра, видимость, явления погоды, количество и форму облачности, нижнюю и верхнюю границу облачности).


Погода Большие Уки - сегодня

Время (UTC), дата Ветер
(°,м/с) 
Видим.   Явления Облачность Т
(°С)
Тd
(°С)
f(%) Тe
(°С)
Pmin
(гПа)
dP
(гПа)
Po
(мм)
O2
(г/м3)
Тmin Tmax R s Состояние
почвы
00 19.10.18 090 (В) 10 км  {дождь}  10/10 300 м 
[Sc]
+0.7 +0.7 100 +1  1005.5  1.6  746  300           
03 19.10.18 130 (ЮВ) 20000 м    9/9 600 м 
[Sc]
+0.5 +0.5 100 1006.7  1.2  747  300  +0.4    0.9  равномерный
мокрый или
старый снег
100% 
06 19.10.18 150 (ЮВ) 20000 м    10/10 600 м 
[Sc]
+0.9 +0.1 94 +2  1008.2  1.5  748  300           
09 19.10.18 160 (Ю) 20000 м    10/10 600 м 
[Sc]
+1.7 -0.5 85 +1  1009.1  0.9  749  300           
12 19.10.18 тихо ()   10 км    10/0 средняя 
[Ac As]
+1.1 -0.2 91 +1  1010.5  1.4  750  301           
15 19.10.18 240 (ЮЗ) 10 км    10/0 средняя 
[Ac As]
+0.7 -0.4 92 +1  1011.6  1.1  751  302    +1.9       
18 19.10.18 180 (Ю) 10 км    10/0 средняя 
[Ac As]
+0.2 -0.2 97 +1  1011.7  0.1  751  302           
21 19.10.18 170 (Ю) 10 км    10/0 средняя 
[Ac As]
+0.2 -0.1 98 +1  1011.7  751  302           
00 20.10.18 210 (ЮЗ) 10 км    10/0 средняя 
[Ac As]
+0.4 +0.2 99 +1  1011.5  -0.2  750  302           
06 20.10.18 190 (Ю) 8000 м  слаб. снег  10/10 300 м 
[Ns]
+1 +0.2 94 -1  1009.4  -1.2  749  301           
09 20.10.18 180 (Ю) 8000 м  слаб. снег  10/10 300 м 
[Ns]
+0.6 +0.6 100 -1  1007.2  -2.2  747  300           
12 20.10.18 180 (Ю) 4000 м  слаб. дождь{снег}  10/10 300 м 
[Ns]
+1.2 +1.2 100 1006.1  -1  746  299           
15 20.10.18 200 (Ю) 4000 м  слаб. дождь  10/10 300 м 
[Ns]
+2.6 +2.6 100 +2  1004.8  -1.1  746  297    +2.6     
18 20.10.18 180 (Ю) 2000 м  дымка{дождь, морось}  10/10 300 м 
[St]
+3.4 +3.4 100 +4  1003.2  -1.6  744  296           
21 20.10.18 220 (ЮЗ) 0500 м  туман  10/10 300 м 
[St]
+3.8 +3.8 100 +5  1002  -1.2  743  295           
00 21.10.18 280 (З) 0500 м  туман  10/10 300 м 
[St]
+4.4 +4.4 100 +5  1001.2  -0.7  743  294           
03 21.10.18 270 (З) 8000 м  дымка{туман}  10/10 300 м 
[St]
+4 +4 100 +4  1001.8  0.5  743  295  +2.6    0.4     
06 21.10.18 280 (З) 20000 м  {туман}  10/10 600 м 
[Sc]
+3.6 +3.2 97 +2  1003.4  1.6  745  296           
12 21.10.18 290 (З) 10 км  {снег}  10/10 600 м 
[Sc]
+1.9 -1.4 79 1006.3  1.7  747  299           
15 21.10.18 280 (З) 10 км    10/10 600 м 
[Sc]
+0.3 -2.1 84 -1  1007.5  1.1  747  301    +4.2  0.0     
18 21.10.18 290 (З) 4000 м  слаб. снег  10/10 300 м 
[Ns]
-1 -2.9 87 -4  1008.5  748  303           
21 21.10.18 270 (З) 4000 м  слаб. снег  10/10 300 м 
[Ns]
-1.7 -2.8 92 -4  1009.8  1.2  749  304           
00 22.10.18 290 (З) 4000 м  слаб. снег  10/10 300 м 
[Ns]
-2 -3.5 89 -4  1010.9  1.1  750  305           
03 22.10.18 280 (З) 8000 м  слаб. снег  10/10 300 м 
[Ns]
-2.1 -3.8 88 -4  1012.2  1.3  751  305  -2.2    0.6  равномерный
сухой снег
100% 
06 22.10.18 290 (З) 20000 м  в посл. час снег  10/10 300 м 
[Sc]
-1.4 -3.9 83 -3  1013.8  1.6  752  305           
Время (UTC), дата Ветер
(°,м/с) 
Видим.   Явления Облачность Т
(°С)
Тd
(°С)
f(%) Тe
(°С)
Pmin
(гПа)
dP
(гПа)
Po
(мм)
O2
(г/м3)
Тmin Tmax R s Состояние
почвы

Для получения пояснительной информации подведите курсор к названию столбца.

ПОГОДА Большие Уки - архив

Всё, что Вы хотите узнать о погоде Большие Уки - удобно и подробно!

Выберите нужную дату (начиная с 1 января 2015* года) и нажмите кнопку "Найти".
Будут отображены архивные сводки погоды по пункту Большие Уки, начиная с указанной даты.


Отображать данные в формате CSV (для использования в таблицах Excel)


Внимание! Наш архив погоды предназначен исключительно для личного некоммерческого использования в познавательных целях. Если Вам необходимы официальные справки о состоянии погоды (для производственных, юридических, коммерческих и т.п. целей), обращайтесь в органы Росгидромета.

*Примечание: данная дата относится к архиву по метеостанциям СССР (Россия, СНГ, Балтия).
Архив по метеостанциям Зарубежной Европы и Азии (кроме Китая) хранится 10 дней, по другим регионам земного шара (Китай, Африка, Америка, Австралия, Океания) - 1 день.

Большие Уки - район местоположения метеостанции


Название, широта, долгота, высота метеостанции:
Большие Уки 56.9°ш. 72.7°д. 87 м над ур. моря [Российская Федерация]

Дополнительная информация

В oтличие oт бoльшинства пoгoдных сайтoв мы публикуем пoдрoбную метеoинфoрмацию в детальнoм прoфессиoнальнoм фoрмате.

Характеристики температуры и влажнoсти вoздуха измеряются на высoте 2 м в тени вдали oт зданий и деревьев.
Скoрoсть ветра измеряется на высoте 10 м (на урoвне рoста челoвека скoрoсть ветра ниже в 1.5-2 раза). Если метеoстанция нахoдится в гoрoде или в лесу, тo скoрoсть ветра занижена на 2-4 м/с пo сравнению с oткрытым местoм. Скoрoсть ветра над акватoриями крупных рек и oзёр, а также на вершинах хoлмoв на 2-5 м/с выше, чем в oбычных услoвиях.
Атмoсфернoе давление в разных тoчках местнoсти мoжет значительнo oтличаться oт давления на метеoстанции, в зависимoсти oт услoвий рельефа (при пoдъёме на 10 м давление пoнижается примернo на 1 мм рт.ст.).